Probability
0 0 0 0 0 0 0 0 0 0 0 0 0 0 0 3 3 6 3 3 6 0 0 0 10 23 52 42 71 90 100 100 84 26 13 19 23 19 19 10 3 3 0 19
0 0 0 0 0 0 0 0 0 0 0 0 0 0 13 6 0 0 3 3 0 0 0 0 0 0 26 58 68 84 94 97 84 48 19 23 26 3 13 13 6 3 10 10
0 0 0 0 0 0 0 0 0 0 0 0 0 0 0 0 3 0 0 0 0 0 0 0 0 0 0 0 13 10 29 23 26 16 0 0 0 0 0 3 0 3 10 10
0 0 0 0 0 0 0 0 0 0 0 0 0 0 0 0 0 0 0 0 0 0 0 0 0 0 0 0 0 0 0 0 0 0 0 0 0 0 0 3 3 3 3 6
0 0 0 0 0 0 0 0 0 0 0 0 0 0 0 0 0 0 0 0 0 0 0 0 3 3 3 0 0 0 0 0 0 0 0 0 0 0 0 0 0 0 0 0
0 0 0 0 0 0 0 0 0 0 0 0 0 0 0 0 0 0 0 0 0 0 0 0 0 0 0 0 0 0 0 0 0 0 0 0 0 0 0 0 0 0 0 0
0 0 0 0 0 0 0 0 0 0 0 0 0 0 0 0 0 0 0 0 0 0 0 0 0 0 0 0 0 0 0 0 0 0 0 0 0 0 0 0 0 0 0 0
0 0 0 0 0 0 0 0 0 0 0 0 0 0 0 0 0 0 0 0 0 0 0 0 0 0 0 0 0 0 0 0 0 0 0 0 0 0 0 0 0 0 0 0
0 0 0 0 0 0 0 0 0 0 0 0 0 0 0 0 0 0 0 0 0 0 0 0 0 0 0 0 0 0 0 0 0 0 0 0 0 0 0 0 0 0 0 0
0 0 0 0 0 0 0 0 0 0 0 0 0 0 0 0 0 0 0 0 0 0 0 0 0 0 0 0 0 0 0 0 0 0 0 0 0 0 0 0 0 0 0 0
0 0 0 0 0 0 0 0 0 0 0 0 0 0 0 0 0 0 0 0 0 0 0 0 0 0 0 0 0 0 0 0 0 0 0 0 0 0 0 0 0 0 0 0
0 0 0 0 0 0 0 0 0 0 0 0 0 0 0 0 0 0 0 0 0 0 0 0 0 0 0 0 0 0 0 0 0 0 0 0 0 0 0 0 0 0 0 0
0 0 0 0 0 0 0 0 0 0 0 0 0 0 0 0 0 0 0 0 0 0 0 0 0 0 0 0 0 0 0 0 0 0 0 0 0 0 0 0 0 0 0 0
0 0 0 0 0 0 0 0 0 0 0 0 0 0 0 0 0 0 0 0 0 0 0 0 0 0 0 0 0 0 0 0 0 0 0 0 0 0 0 0 0 0 0 0
0 0 0 0 0 0 0 0 0 0 0 0 0 0 0 0 0 0 0 0 0 0 0 0 0 0 0 0 0 0 0 0 0 0 0 0 0 0 0 0 0 0 0 0
0 0 0 0 0 0 0 0 0 0 0 0 0 0 0 0 0 0 0 0 0 0 0 0 0 0 0 0 0 0 0 0 0 0 0 0 0 0 0 0 0 0 0 0
0 0 0 0 0 0 0 0 0 0 0 0 0 0 0 0 0 0 0 0 0 0 0 0 0 0 0 0 0 0 0 0 0 0 0 0 0 0 0 0 0 0 0 0
0 0 0 0 0 0 0 0 0 0 0 0 0 0 0 0 0 0 0 0 0 0 0 0 0 0 0 0 0 0 0 0 0 0 0 0 0 0 0 0 0 0 0 0
0 0 0 0 0 0 0 0 0 0 0 0 0 0 0 0 0 0 0 0 0 0 0 0 0 0 0 0 0 0 0 0 0 0 0 0 0 0 0 0 0 0 0 0
0 0 0 0 0 0 0 0 0 0 0 0 0 0 0 0 0 0 0 0 0 0 0 0 0 0 0 0 0 0 0 0 0 0 0 0 0 0 0 0 0 0 0 0
0 0 0 0 0 0 0 0 0 0 0 0 0 0 0 0 0 0 0 0 0 0 0 0 0 0 0 0 0 0 0 0 0 0 0 0 0 0 0 0 0 0 0 0
0 0 0 0 0 0 0 0 0 0 0 0 0 0 0 0 0 0 0 0 0 0 0 0 0 0 0 0 0 0 0 0 0 0 0 0 0 0 0 0 0 0 0 0
0 0 0 0 0 0 0 0 0 0 0 0 0 0 0 0 0 0 0 0 0 0 0 0 0 0 0 0 0 0 0 0 0 0 0 0 0 0 0 0 0 0 0 0
0 0 0 0 0 0 0 0 0 0 0 0 0 0 0 0 0 0 0 0 0 0 0 0 0 0 0 0 0 0 0 0 0 0 0 0 0 0 0 0 0 0 0 0
0 0 0 0 0 0 0 0 0 0 0 0 0 0 0 0 0 0 0 0 0 0 0 0 0 0 0 0 0 0 0 0 0 0 0 0 0 0 0 0 0 0 0 0
0 0 0 0 0 0 0 0 0 0 0 0 0 0 0 0 0 0 0 0 0 0 0 0 0 0 0 0 0 0 0 0 0 0 0 0 0 0 0 0 0 0 0 0
Height
5822 5825 5827 5829 5831 5834 5837 5839 5841 5843 5845 5848 5850 5853 5856 5857 5858 5861 5865 5868 5870 5871 5874 5877 5878 5879 5879 5880 5880 5880 5879 5877 5876 5875 5876 5877 5877 5876 5877 5878 5879 5880 5881 5881
5819 5820 5822 5824 5827 5829 5832 5835 5837 5838 5840 5842 5844 5847 5848 5849 5851 5853 5856 5859 5861 5862 5865 5867 5869 5870 5872 5872 5872 5871 5870 5870 5869 5868 5867 5868 5868 5868 5869 5870 5871 5872 5873 5873
5811 5815 5817 5819 5822 5824 5826 5829 5832 5833 5834 5835 5838 5840 5841 5842 5844 5847 5850 5853 5854 5855 5857 5859 5861 5862 5863 5864 5864 5863 5862 5861 5861 5860 5858 5858 5858 5859 5861 5862 5863 5864 5865 5866
5805 5807 5810 5813 5815 5818 5820 5822 5824 5826 5827 5828 5831 5831 5834 5836 5837 5839 5842 5845 5846 5848 5849 5850 5852 5853 5854 5855 5855 5854 5853 5852 5851 5850 5849 5847 5848 5849 5851 5853 5854 5855 5855 5856
5799 5801 5803 5805 5807 5810 5812 5814 5817 5819 5820 5821 5822 5823 5826 5827 5830 5832 5834 5835 5838 5839 5840 5841 5842 5842 5843 5844 5844 5844 5844 5842 5841 5839 5837 5835 5835 5837 5840 5843 5845 5847 5848 5849
5794 5795 5796 5797 5799 5801 5803 5805 5807 5810 5812 5814 5817 5816 5816 5818 5819 5821 5824 5825 5828 5829 5830 5830 5830 5830 5831 5831 5831 5831 5831 5831 5830 5828 5825 5823 5825 5828 5831 5833 5835 5838 5841 5842
5789 5788 5789 5790 5792 5794 5795 5798 5800 5800 5802 5805 5807 5807 5807 5809 5810 5812 5814 5815 5817 5819 5820 5821 5821 5821 5821 5820 5820 5821 5821 5821 5820 5818 5816 5815 5817 5820 5823 5824 5826 5829 5832 5834
5784 5784 5783 5784 5786 5788 5789 5791 5793 5793 5793 5795 5797 5797 5799 5801 5802 5803 5805 5807 5809 5810 5812 5812 5813 5813 5813 5812 5812 5812 5811 5811 5811 5810 5810 5811 5811 5813 5816 5817 5818 5821 5824 5826
5780 5780 5779 5779 5781 5782 5782 5783 5785 5785 5784 5786 5788 5790 5791 5793 5794 5796 5798 5799 5801 5802 5804 5804 5804 5804 5804 5804 5804 5804 5803 5803 5803 5803 5804 5805 5806 5807 5810 5811 5812 5814 5816 5817
5776 5776 5776 5776 5777 5777 5777 5777 5778 5778 5778 5778 5780 5781 5783 5785 5786 5788 5790 5791 5792 5794 5796 5796 5796 5796 5796 5796 5795 5795 5795 5795 5795 5796 5798 5798 5799 5801 5803 5804 5805 5806 5808 5809
5772 5772 5772 5772 5771 5770 5770 5771 5770 5770 5771 5772 5772 5775 5776 5777 5778 5780 5782 5783 5784 5785 5787 5788 5788 5789 5788 5788 5788 5787 5787 5788 5789 5790 5791 5792 5794 5795 5796 5797 5798 5799 5799 5801
5765 5765 5764 5764 5763 5762 5762 5763 5763 5764 5764 5764 5764 5768 5767 5768 5770 5772 5774 5775 5776 5777 5778 5779 5781 5781 5782 5781 5781 5781 5781 5782 5783 5784 5785 5786 5786 5787 5788 5788 5789 5790 5791 5792
5756 5756 5755 5755 5756 5754 5753 5754 5754 5755 5756 5756 5757 5761 5760 5759 5761 5763 5765 5767 5768 5770 5771 5772 5773 5774 5775 5776 5776 5776 5776 5776 5777 5777 5777 5777 5778 5778 5779 5780 5780 5781 5782 5783
5747 5747 5747 5746 5745 5744 5744 5745 5745 5746 5747 5748 5750 5752 5753 5753 5754 5756 5758 5759 5761 5762 5764 5766 5766 5767 5768 5769 5770 5770 5770 5770 5770 5771 5770 5770 5770 5770 5770 5771 5772 5772 5773 5774
5740 5738 5736 5736 5736 5735 5735 5736 5737 5738 5738 5740 5742 5744 5746 5746 5747 5748 5748 5749 5751 5753 5755 5757 5758 5759 5760 5761 5761 5762 5762 5763 5763 5763 5763 5762 5761 5762 5762 5762 5763 5763 5764 5766
5731 5730 5728 5728 5728 5727 5727 5729 5730 5730 5731 5732 5734 5736 5738 5739 5740 5741 5741 5742 5742 5743 5744 5745 5747 5748 5750 5751 5751 5751 5752 5753 5754 5754 5753 5753 5753 5752 5753 5753 5754 5755 5756 5757
5725 5723 5722 5720 5720 5719 5720 5721 5722 5723 5723 5725 5727 5730 5731 5731 5732 5734 5735 5736 5737 5736 5735 5735 5735 5735 5736 5738 5739 5739 5740 5741 5742 5742 5742 5742 5742 5742 5742 5743 5744 5745 5746 5746
5721 5719 5717 5715 5715 5714 5716 5714 5715 5716 5717 5718 5720 5722 5723 5723 5724 5726 5728 5729 5730 5729 5728 5727 5726 5725 5725 5725 5726 5727 5727 5727 5728 5728 5729 5729 5729 5730 5730 5731 5732 5734 5735 5736
5718 5715 5713 5711 5710 5709 5710 5709 5709 5710 5711 5713 5714 5716 5717 5718 5719 5720 5721 5722 5721 5721 5720 5720 5719 5718 5717 5716 5716 5716 5715 5714 5714 5715 5716 5716 5716 5717 5718 5719 5720 5721 5723 5726
5715 5711 5709 5707 5706 5706 5707 5706 5706 5707 5708 5709 5710 5711 5712 5713 5715 5715 5715 5714 5714 5714 5713 5712 5711 5710 5709 5708 5707 5706 5706 5705 5704 5704 5704 5705 5706 5707 5708 5709 5710 5711 5712 5714
5714 5709 5706 5704 5703 5703 5703 5702 5703 5706 5706 5706 5706 5707 5708 5709 5710 5710 5709 5709 5709 5708 5706 5705 5703 5701 5700 5699 5699 5698 5697 5697 5696 5696 5696 5697 5698 5699 5701 5701 5702 5703 5704 5705
5714 5709 5705 5702 5700 5702 5699 5699 5700 5701 5701 5702 5702 5703 5703 5704 5704 5704 5704 5704 5704 5702 5701 5699 5697 5696 5694 5692 5691 5691 5691 5691 5691 5691 5691 5692 5693 5694 5694 5695 5695 5696 5696 5697
5715 5711 5705 5702 5701 5698 5696 5696 5696 5697 5697 5698 5698 5698 5699 5699 5699 5699 5699 5699 5698 5697 5695 5694 5692 5691 5689 5688 5687 5687 5687 5687 5688 5688 5688 5688 5689 5689 5689 5690 5690 5690 5690 5690
5717 5712 5708 5703 5699 5697 5695 5694 5695 5695 5695 5695 5695 5695 5695 5695 5695 5695 5695 5694 5693 5691 5690 5688 5687 5686 5685 5684 5683 5683 5683 5683 5683 5683 5684 5684 5684 5684 5684 5684 5684 5684 5684 5684
5719 5714 5710 5706 5702 5698 5696 5695 5694 5693 5693 5693 5692 5692 5692 5692 5692 5691 5691 5690 5688 5687 5685 5684 5683 5682 5681 5680 5680 5679 5679 5679 5678 5678 5678 5678 5678 5678 5678 5677 5677 5677 5677 5677
5719 5716 5712 5709 5705 5702 5699 5696 5694 5693 5692 5691 5690 5690 5689 5689 5688 5687 5686 5685 5683 5682 5681 5679 5678 5677 5676 5675 5675 5674 5674 5673 5673 5673 5672 5672 5671 5671 5670 5670 5669 5668 5668 5668
Wind_Speed
25 25 26 27 28 28 28 29 30 32 34 35 36 35 35 36 38 38 36 33 31 29 27 24 25 27 26 26 28 30 32 33 34 35 32 31 31 31 30 27 26 26 28 29
27 28 29 29 28 28 28 28 29 31 31 32 31 31 31 32 33 35 34 34 34 34 32 30 29 29 29 29 31 32 33 33 36 38 39 37 36 35 34 31 31 32 32 31
30 31 31 31 31 30 30 29 29 30 31 31 31 32 31 32 33 33 33 32 33 32 31 30 30 29 30 31 33 35 35 36 37 39 42 42 41 41 39 38 36 36 35 34
31 31 31 32 33 33 34 33 33 32 32 33 33 36 37 36 36 35 32 30 30 29 29 28 27 29 30 32 35 38 41 42 42 42 44 47 47 47 47 45 41 38 36 33
31 33 33 33 33 33 35 37 38 38 38 38 37 39 40 40 40 39 36 33 30 29 29 28 29 31 33 33 35 40 45 48 49 49 49 49 49 49 49 46 43 38 32 28
20 28 33 34 35 36 37 39 40 40 41 43 41 42 44 44 43 41 40 37 33 32 32 33 35 36 37 36 36 39 44 48 51 52 48 50 51 49 47 44 41 37 34 30
15 20 26 31 33 34 35 35 35 36 36 38 38 40 43 42 43 42 41 39 36 34 34 36 37 39 40 41 41 40 42 45 46 47 46 44 49 50 45 38 35 35 35 34
14 16 18 22 27 29 31 31 31 32 32 32 32 35 36 36 37 37 38 37 37 36 36 36 37 39 40 41 41 40 38 38 38 36 33 30 32 38 38 35 33 33 35 35
13 12 12 13 18 23 27 28 29 30 31 32 33 33 34 32 32 33 33 33 34 34 34 35 34 33 33 34 34 34 34 33 30 26 26 25 23 21 23 25 28 32 35 36
13 13 12 12 15 19 21 22 24 27 28 29 31 31 32 32 33 32 31 31 31 30 30 29 28 27 27 27 27 25 23 22 21 21 21 21 19 18 20 24 27 30 31 32
19 20 21 21 20 22 23 23 24 24 24 26 29 29 27 28 28 28 28 29 29 28 27 26 26 26 25 25 23 19 17 16 17 17 18 18 19 20 22 24 25 26 27 28
26 26 25 26 27 27 29 28 27 27 26 27 27 28 27 28 26 25 25 25 25 26 25 24 25 25 24 22 20 17 15 16 18 19 20 22 22 23 24 26 27 28 28 28
28 29 30 30 30 31 31 29 29 30 31 31 30 27 25 27 24 22 21 21 21 21 21 22 22 21 21 21 22 21 20 20 21 23 24 25 25 25 27 28 29 31 31 32
26 27 29 31 30 30 28 26 26 29 31 31 32 30 26 24 23 23 24 25 25 24 24 23 23 24 24 25 26 26 26 26 26 27 27 27 28 29 29 30 31 32 33 34
29 30 31 31 30 29 28 26 24 25 28 29 27 26 25 23 23 24 27 29 30 30 31 31 31 30 30 31 32 32 32 31 30 31 31 32 33 34 35 35 35 36 35 36
28 31 31 30 29 29 30 29 26 25 23 22 23 23 25 26 26 26 25 26 28 30 31 32 32 32 32 33 33 34 34 34 34 34 35 36 37 38 39 39 40 40 39 38
20 21 22 22 23 25 26 26 25 24 21 18 19 19 19 23 25 26 26 26 28 31 33 34 33 33 32 33 34 35 36 37 37 37 38 40 41 41 42 42 41 41 40 39
18 19 19 18 18 18 19 21 22 21 23 24 22 21 23 24 24 25 26 28 31 33 33 32 32 32 32 32 33 34 36 36 37 38 40 42 44 45 45 45 43 41 40 40
18 18 18 16 15 15 14 15 17 18 18 20 20 21 24 26 26 26 27 28 28 27 27 27 27 28 29 29 30 31 32 34 35 37 38 40 41 42 42 42 42 41 40 40
21 17 15 14 14 14 13 13 13 13 15 18 19 18 17 16 18 19 20 21 22 22 23 24 26 27 28 28 28 29 30 30 31 32 33 33 33 33 33 33 34 35 36 37
23 19 15 14 14 13 14 14 14 13 13 14 17 19 20 19 19 18 17 15 15 17 19 21 23 24 24 24 24 24 24 23 23 23 23 24 24 24 25 26 27 29 31 32
23 19 15 13 13 13 13 13 13 14 14 13 14 15 17 19 19 17 13 11 12 15 18 19 20 20 19 18 17 17 16 15 14 13 14 15 17 19 21 23 25 26 26 26
25 23 19 15 12 10 9 9 10 11 12 13 13 15 16 17 16 15 14 14 16 18 19 20 20 18 16 15 15 16 16 16 17 17 17 17 18 19 20 21 22 23 23 22
25 25 22 19 15 12 8 6 6 8 10 12 13 14 14 14 15 16 18 19 20 21 20 19 18 16 15 14 15 16 17 18 19 19 19 19 20 21 21 23 24 25 25 24
20 22 22 20 18 15 11 8 6 7 8 10 12 12 12 13 15 17 19 20 20 20 19 18 17 17 16 16 15 16 18 19 20 21 21 22 22 23 24 26 28 30 30 30
15 16 17 18 19 17 14 11 9 7 6 7 8 8 9 11 12 14 15 16 16 16 16 16 17 17 18 18 18 18 19 21 23 25 27 28 28 28 29 31 32 34 35 35
Wind_Direction
223 226 229 233 236 235 233 233 233 234 236 241 246 250 252 254 255 257 259 260 260 258 254 249 244 242 242 242 241 245 250 253 258 264 263 259 259 263 269 272 271 275 280 281
229 230 232 235 238 241 240 240 241 241 240 241 243 247 251 252 253 254 256 256 257 259 259 254 248 242 241 241 238 240 244 248 254 260 262 258 258 260 264 271 275 276 276 277
231 234 236 238 239 241 243 243 243 245 245 245 244 243 246 251 254 256 257 258 258 260 262 264 258 247 244 243 242 243 245 246 250 257 261 260 259 260 263 267 274 278 278 272
234 236 239 242 244 246 247 246 245 245 246 249 250 253 249 252 255 257 257 256 255 255 258 262 257 252 252 249 249 248 248 247 249 253 259 260 260 259 261 264 269 275 276 268
236 238 238 240 243 246 249 249 249 248 249 251 253 257 259 260 260 259 259 257 254 252 255 259 259 258 258 257 256 254 252 251 250 252 254 256 258 258 260 260 263 269 267 262
247 244 242 240 240 241 245 249 251 252 252 253 254 257 261 262 264 263 262 259 255 253 255 258 258 259 259 258 257 256 255 254 254 254 255 255 255 257 259 258 258 261 263 265
271 261 250 243 241 242 244 249 253 256 256 257 255 255 257 258 259 260 262 262 260 258 260 261 261 261 262 261 259 260 261 260 259 260 257 260 256 254 253 247 254 262 262 264
282 272 259 248 245 245 246 250 256 259 258 256 252 252 255 256 255 255 256 258 260 261 262 264 266 267 267 265 263 266 269 266 264 268 264 271 264 252 246 247 256 261 262 262
280 279 269 256 248 248 250 253 257 261 262 258 254 252 253 254 254 254 254 255 256 257 258 262 264 264 266 268 270 274 276 274 273 275 269 271 272 266 256 255 255 256 258 260
266 261 262 266 260 255 257 255 253 257 262 262 261 257 256 255 255 256 256 255 254 255 257 256 255 259 265 272 274 272 269 268 270 272 270 268 267 260 256 254 255 256 260 264
269 268 269 269 269 268 266 266 266 263 261 261 262 261 258 258 258 258 256 253 252 253 254 252 252 260 270 274 272 268 264 261 262 264 265 261 256 254 254 258 261 264 265 267
273 274 275 274 270 268 269 271 268 264 259 258 258 263 261 261 261 258 255 252 252 253 256 257 260 265 267 264 259 255 252 256 264 269 269 265 262 261 260 261 263 264 266 267
276 277 276 273 271 270 270 267 264 261 257 257 256 260 262 260 257 255 252 250 248 249 255 259 259 260 259 254 253 256 259 264 270 274 273 271 269 267 266 264 263 263 265 268
283 279 278 277 275 274 272 267 262 257 256 258 259 260 258 255 252 251 251 252 254 254 257 258 256 254 257 258 258 261 266 268 270 272 271 271 270 270 270 270 269 267 266 267
274 272 279 278 272 274 276 272 269 263 255 256 258 256 250 250 254 258 258 259 261 264 266 265 262 259 261 263 262 263 266 266 267 268 268 267 266 267 269 269 270 269 267 266
279 282 282 276 272 272 272 272 273 267 256 255 255 259 257 256 255 254 254 259 266 272 275 275 274 270 267 267 267 267 266 266 265 264 264 263 263 264 265 266 267 267 266 266
294 289 285 282 275 269 268 270 268 261 251 250 250 251 255 247 243 242 245 253 264 274 280 283 282 279 275 272 270 270 269 268 266 264 262 260 259 260 262 263 264 263 263 263
301 296 293 289 279 274 272 269 265 264 261 260 257 251 245 240 240 246 254 264 273 277 280 279 278 277 276 274 273 271 270 269 267 264 261 259 257 258 258 259 260 260 259 259
318 306 301 296 286 279 280 278 272 267 269 265 263 258 257 259 262 264 268 272 273 275 277 277 276 275 274 275 275 276 275 272 268 265 262 260 260 260 260 261 261 260 258 256
339 326 305 294 287 278 279 282 279 274 271 268 263 261 262 265 268 268 269 269 271 275 279 282 283 282 280 279 279 280 280 276 271 267 263 261 260 260 261 261 261 261 260 259
351 342 323 298 286 283 282 280 274 270 267 269 268 266 266 267 271 273 269 266 274 285 291 293 291 287 284 282 281 280 279 275 271 268 264 260 257 255 255 256 255 255 255 256
8 357 343 324 306 298 291 280 272 271 270 271 276 276 273 270 267 264 255 261 281 295 300 300 297 293 289 286 283 278 275 271 269 269 266 261 256 254 254 254 254 252 251 249
17 17 13 5 352 335 313 288 276 278 276 274 281 284 282 278 271 259 253 266 283 294 300 301 298 296 291 287 279 268 266 264 263 261 258 253 250 253 257 261 264 262 261 263
16 19 21 21 21 16 5 340 305 290 285 283 285 287 287 284 279 271 267 275 286 292 294 294 292 292 292 289 282 270 264 262 256 251 248 249 250 253 261 267 270 271 272 277
12 17 19 22 27 31 30 23 3 334 316 307 302 299 297 295 293 289 286 287 289 290 288 286 285 286 287 286 283 277 269 265 259 254 252 253 256 260 265 268 266 267 271 274
1 8 14 18 22 27 30 32 29 16 353 333 320 312 306 302 300 299 297 295 295 293 291 289 286 283 282 282 282 282 278 272 269 267 266 266 268 268 267 265 264 267 270 271